Location: Aurora Center
(43.5271°N, 98.5894°W)
Time: 00:52:30
(UTC-05:00)

BlueWalker 3 - Pass Details

Date: 27 June 2024
Orbit: 480 x 492 km, 53.2° (Epoch: 15 July)

Event Time Altitude Azimuth Distance (km) Brightness Sun altitude
Rises 02:11:00 0° 303° (WNW) 2,539 5.8 -22.7°
Reaches altitude 10° 02:13:10 10° 301° (WNW) 1,656 4.8 -22.7°
Enters shadow 02:15:18 32° 291° (WNW) 852 3.1 -22.6°
